TimeAST,TemperatureF,Dew PointF,Humidity,Sea Level PressureIn,VisibilityMPH,Wind Direction,Wind SpeedMPH,Gust SpeedMPH,PrecipitationIn,Events,Conditions,WindDirDegrees,DateUTC
12:00 AM,77.0,66.2,69,30.01,-9999.0,NW,5.8,-,N/A,,Clear,320,2013-11-06 21:00:00
12:30 AM,77.0,66.2,69,30.01,-9999.0,NW,5.8,-,N/A,,Clear,310,2013-11-06 21:30:00
1:00 AM,77.0,66.2,69,30.01,6.2,NW,4.6,-,N/A,,Partly Cloudy,310,2013-11-06 22:00:00
1:30 AM,77.0,66.2,69,30.01,6.2,WNW,5.8,-,N/A,,Partly Cloudy,300,2013-11-06 22:30:00
2:00 AM,77.0,66.2,69,30.01,-9999.0,WNW,4.6,-,N/A,,Clear,300,2013-11-06 23:00:00
2:30 AM,77.0,66.2,69,30.01,-9999.0,NW,6.9,-,N/A,,Clear,310,2013-11-06 23:30:00
3:00 AM,76,66,65,30.01,7,NW,5.8,,,,,310,2013-11-07 00:00:00
3:00 AM,77.0,66.2,69,30.01,-9999.0,NW,5.8,-,N/A,,Clear,310,2013-11-07 00:00:00
3:30 AM,75.2,66.2,73,30.01,-9999.0,NW,4.6,-,N/A,,Clear,310,2013-11-07 00:30:00
4:00 AM,75.2,66.2,73,30.01,-9999.0,NW,4.6,-,N/A,,Clear,310,2013-11-07 01:00:00
5:30 AM,75.2,66.2,73,30.01,-9999.0,NW,3.5,-,N/A,,Clear,310,2013-11-07 02:30:00
6:00 AM,75.2,66.2,73,30.04,5.0,WNW,4.6,-,N/A,,Unknown,300,2013-11-07 03:00:00
6:30 AM,75.2,66.2,73,30.04,-9999.0,NW,5.8,-,N/A,,Clear,310,2013-11-07 03:30:00
7:00 AM,77.0,68.0,74,30.04,-9999.0,WNW,5.8,-,N/A,,Clear,300,2013-11-07 04:00:00
7:30 AM,78.8,68.0,69,30.04,-9999.0,NW,6.9,-,N/A,,Clear,310,2013-11-07 04:30:00
8:00 AM,78.8,66.2,65,30.04,-9999.0,NW,5.8,-,N/A,,Clear,310,2013-11-07 05:00:00
8:30 AM,80.6,66.2,61,30.06,6.2,NW,6.9,-,N/A,,Partly Cloudy,310,2013-11-07 05:30:00
9:00 AM,82,69,56,30.07,7,NNW,6.9,,,,Scattered Clouds,340,2013-11-07 06:00:00
9:00 AM,82.4,68.0,62,30.06,6.2,NNW,6.9,-,N/A,,Partly Cloudy,340,2013-11-07 06:00:00
9:30 AM,82.4,66.2,58,30.06,6.2,North,5.8,-,N/A,,Partly Cloudy,10,2013-11-07 06:30:00
10:00 AM,82.4,66.2,58,30.06,6.2,NE,4.6,-,N/A,,Partly Cloudy,50,2013-11-07 07:00:00
10:30 AM,84.2,66.2,55,30.04,6.2,Variable,5.8,-,N/A,,Partly Cloudy,0,2013-11-07 07:30:00
11:00 AM,84.2,64.4,51,30.04,6.2,North,5.8,-,N/A,,Partly Cloudy,10,2013-11-07 08:00:00
11:30 AM,84.2,66.2,55,30.04,6.2,North,6.9,-,N/A,,Partly Cloudy,360,2013-11-07 08:30:00
12:00 PM,82.4,64.4,54,30.01,6.2,North,5.8,-,N/A,,Partly Cloudy,10,2013-11-07 09:00:00
12:30 PM,84.2,64.4,51,30.01,6.2,NNE,8.1,-,N/A,,Partly Cloudy,20,2013-11-07 09:30:00
1:00 PM,84.2,64.4,51,29.98,6.2,ENE,8.1,-,N/A,,Partly Cloudy,60,2013-11-07 10:00:00
1:30 PM,82.4,64.4,54,29.98,6.2,NE,9.2,-,N/A,,Partly Cloudy,40,2013-11-07 10:30:00
2:00 PM,82.4,64.4,54,29.98,6.2,NE,6.9,-,N/A,,Partly Cloudy,50,2013-11-07 11:00:00
2:30 PM,82.4,64.4,54,29.98,6.2,ENE,8.1,-,N/A,,Partly Cloudy,60,2013-11-07 11:30:00
3:00 PM,83,65,46,29.98,10,ENE,6.9,,,,Scattered Clouds,70,2013-11-07 12:00:00
3:00 PM,82.4,66.2,58,29.98,6.2,ENE,6.9,-,N/A,,Partly Cloudy,70,2013-11-07 12:00:00
4:00 PM,82.4,66.2,58,29.98,-9999.0,ENE,8.1,-,N/A,,Clear,70,2013-11-07 13:00:00
4:30 PM,80.6,62.6,54,29.98,-9999.0,East,8.1,-,N/A,,Clear,80,2013-11-07 13:30:00
5:00 PM,80.6,64.4,58,29.98,-9999.0,East,5.8,-,N/A,,Clear,80,2013-11-07 14:00:00
5:30 PM,80.6,62.6,54,29.98,-9999.0,ENE,5.8,-,N/A,,Clear,60,2013-11-07 14:30:00
6:00 PM,80.6,62.6,54,30.01,-9999.0,NE,4.6,-,N/A,,Clear,50,2013-11-07 15:00:00
6:30 PM,80.6,62.6,54,30.01,-9999.0,NE,4.6,-,N/A,,Clear,40,2013-11-07 15:30:00
7:00 PM,80.6,64.4,58,30.01,-9999.0,NNE,3.5,-,N/A,,Clear,30,2013-11-07 16:00:00
7:30 PM,80.6,62.6,54,30.01,-9999.0,NE,3.5,-,N/A,,Clear,50,2013-11-07 16:30:00
8:00 PM,78.8,64.4,61,30.01,-9999.0,NE,3.5,-,N/A,,Clear,50,2013-11-07 17:00:00
8:30 PM,78.8,64.4,61,30.01,-9999.0,NNE,3.5,-,N/A,,Clear,20,2013-11-07 17:30:00
9:00 PM,79,64,51,30.03,9,NNE,3.5,,,,,30,2013-11-07 18:00:00
9:00 PM,78.8,64.4,61,30.01,-9999.0,NNE,3.5,-,N/A,,Clear,30,2013-11-07 18:00:00
10:00 PM,78.8,64.4,61,30.01,-9999.0,NE,3.5,-,N/A,,Clear,40,2013-11-07 19:00:00
10:30 PM,78.8,64.4,61,30.01,-9999.0,NE,3.5,-,N/A,,Clear,40,2013-11-07 19:30:00
11:00 PM,78.8,64.4,61,30.01,-9999.0,NE,3.5,-,N/A,,Clear,40,2013-11-07 20:00:00
11:30 PM,78.8,64.4,61,29.98,-9999.0,Variable,2.3,-,N/A,,Clear,0,2013-11-07 20:30:00